Warsaw, IN

9:36 AM EDT on March 30, 2015 (GMT -0400)
Warsaw Municipal | | Change Station
CLOSE
Current Station
Airport
Location: Warsaw,
Elevation: 850 ft
Nearby Weather Stations

Elev 850 ft 41.27 °N, 85.84 °W | Updated 21 minutes ago

Clear
Clear
37 °F
Feels Like 29 °F
N
13
Wind Variable Wind from West

Today
High -- | Low -- °F
--% Chance of Precip.
Yesterday
High -- | Low -- °F
Precip. -- in
7:30 AM 8:06 PM
Waxing Gibbous, 79% visible
Pressure 30.01 in
Visibility 10.0 miles
Clouds Clear
Windchill 29 °F
Dew Point 32 °F
Humidity 81%
Rainfall 0.00 in
Snow Depth Not available.
UV 1 out of 12
Pollen 4.30 out of 12
Air Quality Not available.
Flu Activity Not available.
METAR KASW 301315Z AUTO 28011KT 10SM CLR 03/00 A3001 RMK AO2

More Conditions Fewer Conditions

Pressure 30.01 in
Visibility 10.0 miles
Clouds Clear
Windchill 29 °F
Dew Point 32 °F
Humidity 81%
Rainfall 0.00 in
Snow Depth Not available.
UV 1 out of 12
Pollen 4.30 out of 12
Air Quality Not available.
Flu Activity Not available.
METAR KASW 301315Z AUTO 28011KT 10SM CLR 03/00 A3001 RMK AO2

More Conditions Fewer Conditions

10-Day Weather Forecast

Almanac

Astronomy

Mar. 30, 2015 Rise Set
Actual Time
Civil Twilight
Nautical Twilight
Astronomical Twilight
Moon
Length of Visible Light
Length of Day
Tomorrow will be .
, % of the Moon is Illuminated

Today's Extremes

State Highs State Lows

Community

WunderPhotos

Upload Photos

1,809,493 photos uploaded!

WunderBlogs® & News

Nearby

Air Quality

  Air Quality AQ Index Pollutant
Not available.

Snow Depth

Station Depth Elevation

Earthquake Activity

City Distance Mag. Time & Date
Minimum magnitude displayed is 2.5.

Coastal Water Temperatures

Place Temperature

Stations

Nearby Weather Stations

Station Location Temp. Windchill Dew Point Humidity Wind Precip. Elev Updated Type